Location: Unspecified
(41.9031°N, 12.4386°E)
Time: 05:46:49
(UTC+01:00)

ISS - Pass Details

Date: 12 December 2019
Orbit: 411 x 421 km, 51.6° (Epoch: 15 December)

Event Time Altitude Azimuth Distance (km) Brightness Sun altitude
Rises 18:25:32 0° 285° (WNW) 2,357 1.1 -19.0°
Reaches altitude 10° 18:29:14 10° 242° (WSW) 1,490 0.2 -19.7°
Maximum altitude 18:29:53 10° 231° (SW) 1,464 -0.1 -19.8°
Drops below altitude 10° 18:30:32 10° 220° (SW) 1,489 -0.2 -19.9°
Sets 18:34:13 0° 178° (S) 2,348 0.2 -20.6°
